SKYTERRA 1

Last updated on Sat Jul 05 2025 00:02:45 GMT+0000 (Coordinated Universal Time)

1 37218U 10061A 25185.54534175 -.00000107 00000+0 00000+0 0 9991 2 37218 4.3870 50.6714 0001718 45.4151 281.7291 1.00272990 53700
UTC large
Height (km)
Speed (km/s)
/
Latitude / Longitude
Inclination (degrees)
Orbital Period (minutes)
Azimuth
Elevation
Range (km)
Doppler Factor

Next 0 passes for location: London (51.5072 / 0.1276)

Sorry there are no passes over London.